CW3833 Weather Reports


time (UTC)temp
F
wind
direction
speed
knots
gust
knots
rain 1hr
in
rain 24hr
in
rain mn
in
humidity
%
barometer
mb
20260503044606 37 0 0.9 3.5 0.00 0.00 0.00 78 1013.1
20260503043107 37 234 0.9 5.2 0.00 0.00 0.00 78 1013.2
20260503041615 37 263 0.0 4.3 0.00 0.00 0.00 78 1013.3
20260503040106 38 286 0.9 6.1 0.00 0.00 0.00 77 1013.3
20260503034557 38 221 1.7 6.1 0.00 0.00 0.00 77 1013.3
20260503033108 38 238 0.9 6.1 0.00 0.00 0.00 77 1013.3
20260503031604 38 241 1.7 5.2 0.00 0.00 0.00 77 1013.4
20260503030056 38 0 1.7 6.1 0.00 0.00 0.00 77 1013.4
20260503024600 38 197 0.9 6.1 0.00 0.00 0.00 76 1013.6
20260503023103 38 252 0.9 7.8 0.00 0.00 0.00 77 1013.6
20260503021606 38 212 1.7 6.1 0.00 0.00 0.00 76 1013.7
20260503020108 38 236 1.7 5.2 0.00 0.00 0.00 76 1013.8
20260503014600 38 239 0.9 5.2 0.00 0.00 0.00 76 1013.8
20260503013107 38 202 0.9 5.2 0.00 0.00 0.00 76 1013.8
20260503011608 38 227 1.7 4.3 0.00 0.00 0.00 76 1013.7
20260503010106 38 0 0.9 6.1 0.00 0.00 0.00 76 1013.6
20260503004558 39 202 1.7 6.1 0.00 0.01 0.00 75 1013.5
20260503003108 39 259 0.9 6.1 0.00 0.01 0.00 75 1013.5
20260503001601 39 254 1.7 7.0 0.00 0.01 0.00 74 1013.4
20260503000111 39 232 0.9 5.2 0.00 0.01 0.00 75 1013.4
20260502234557 39 274 0.9 7.0 0.00 0.01 0.00 74 1013.3
20260502233102 40 286 0.9 7.0 0.00 0.01 0.00 74 1013.1
20260502231612 40 272 0.0 7.0 0.00 0.01 0.00 73 1013.2
20260502230113 40 234 2.6 7.0 0.00 0.01 0.00 72 1013.1
20260502224601 41 226 2.6 7.8 0.00 0.04 0.00 71 1012.9
20260502223058 41 231 2.6 6.1 0.00 0.04 0.00 70 1012.8
20260502221601 41 279 0.9 7.0 0.00 0.04 0.00 71 1012.9
20260502220056 41 315 1.7 7.0 0.00 0.04 0.00 71 1012.9
20260502214559 41 258 3.5 8.7 0.00 0.06 0.00 70 1012.7
20260502213057 41 275 3.5 9.6 0.00 0.06 0.00 69 1012.7
20260502211559 42 330 1.7 9.6 0.00 0.06 0.00 69 1012.6
20260502210057 43 344 3.5 8.7 0.00 0.06 0.00 67 1012.4
20260502204610 42 207 2.6 8.7 0.00 0.07 0.00 67 1012.5
20260502203059 42 233 3.5 8.7 0.00 0.07 0.00 65 1012.6
20260502201559 43 215 3.5 11.3 0.00 0.07 0.00 61 1012.5
20260502200059 44 316 2.6 8.7 0.00 0.07 0.00 57 1012.5
20260502194556 44 300 4.3 11.3 0.00 0.08 0.00 57 1012.6
20260502193100 45 236 2.6 10.4 0.00 0.08 0.00 57 1012.6
20260502191604 45 280 2.6 8.7 0.00 0.08 0.00 56 1012.7
20260502190058 45 322 3.5 11.3 0.00 0.08 0.00 54 1012.7
20260502184556 45 194 1.7 10.4 0.00 0.09 0.00 55 1012.8
20260502183058 45 342 4.3 9.6 0.00 0.09 0.00 53 1012.7
20260502181601 45 267 3.5 10.4 0.00 0.09 0.00 55 1012.5
20260502163111 44 254 3.5 11.3 0.00 0.09 0.00 57 1012.7
20260502161559 44 279 5.2 14.8 0.00 0.09 0.00 57 1012.7
20260502151558 43 269 2.6 13.0 0.00 0.09 0.00 62 1012.9
20260502150111 43 261 3.5 13.0 0.00 0.09 0.00 62 1013.0
20260502130109 37 287 1.7 8.7 0.00 0.09 0.00 81 1013.8
20260502123104 37 219 1.7 7.0 0.00 0.09 0.00 82 1013.8
20260502121602 36 287 2.6 7.0 0.00 0.09 0.00 81 1013.8
20260502114559 35 290 2.6 7.8 0.00 0.09 0.00 81 1013.5
20260502113101 34 279 2.6 7.0 0.00 0.09 0.00 82 1013.5
20260502111602 33 240 1.7 6.1 0.00 0.09 0.00 82 1013.4
20260502110105 33 232 0.9 6.1 0.00 0.09 0.00 82 1013.3
20260502104602 32 248 1.7 7.0 0.00 0.10 0.00 82 1013.2
20260502103109 32 254 1.7 7.8 0.00 0.10 0.00 82 1013.1
20260502101556 32 281 1.7 7.0 0.00 0.10 0.00 82 1012.9
20260502080107 35 271 1.7 6.1 0.00 0.10 0.00 81 1012.0
20260502070057 36 286 1.7 7.8 0.00 0.10 0.00 82 1011.8
20260502064559 37 266 0.9 6.1 0.00 0.10 0.00 82 1011.9
20260502063117 37 0 0.0 1.7 0.00 0.10 0.00 82 1012.0
20260502061600 37 0 0.0 2.6 0.00 0.10 0.00 82 1012.0
20260502060059 37 0 0.0 3.5 0.00 0.10 0.00 82 1012.0
20260502054607 38 0 0.9 3.5 0.00 0.10 0.00 82 1011.9
20260502053104 38 268 0.0 2.6 0.00 0.10 0.00 82 1012.1
20260502051558 38 231 0.9 7.0 0.00 0.10 0.00 82 1012.2